Location: Unspecified
(44.4377°N, 88.0525°W)
Time: 17:17:47
(UTC-05:00)

Okean 3 - Visible Passes

Search period start: 20 April 2014 00:00
Search period end: 30 April 2014 00:00
Orbit: 583 x 612 km, 82.5° (Epoch: 20 April)

Date Brightness Start Highest point End Pass type
(mag) Time Alt. Az. Time Alt. Az. Time Alt. Az.
20 Apr 4.9 20:30:19 10° SE 20:33:25 20° E 20:36:31 10° NE visible
20 Apr 4.9 22:06:52 11° SW 22:10:35 36° WNW 22:14:32 10° N visible
21 Apr 4.3 20:40:12 10° SSE 20:43:56 30° E 20:47:40 10° NNE visible
21 Apr 5.7 22:17:54 10° SW 22:21:22 24° WNW 22:24:50 10° NNW visible
22 Apr 3.7 20:50:24 10° SSE 20:54:30 48° E 20:58:36 10° NNE visible
22 Apr 6.3 22:29:35 10° WSW 22:32:12 16° WNW 22:34:50 10° NNW visible
23 Apr 3.4 21:00:51 10° S 21:05:06 78° E 21:09:22 10° NNE visible
23 Apr 6.7 22:42:26 10° WNW 22:43:06 10° WNW 22:43:46 10° NW visible
24 Apr 3.9 21:11:31 10° SSW 21:15:45 66° W 21:19:59 10° N visible
25 Apr 4.8 21:22:25 10° SSW 21:26:27 41° WNW 21:30:29 10° N visible
26 Apr 5.7 21:33:34 10° SW 21:37:11 27° WNW 21:40:48 10° NNW visible
27 Apr 6.4 21:45:04 10° WSW 21:47:59 18° WNW 21:50:54 10° NNW visible
28 Apr 3.5 20:16:43 10° S 20:20:55 67° E 20:25:07 10° NNE visible
28 Apr 6.7 21:57:15 10° W 21:58:49 12° WNW 22:00:24 10° NW visible
29 Apr 3.7 20:27:17 10° SSW 20:31:31 77° W 20:35:45 10° N visible
